Regional Weather Roundup
Issued by NWS Grand Forks, ND

Home | Current Version | Previous Version | Text Only | Print | Product List | Glossary Off
Versions: 1 2 3 4 5 6 7 8 9 10 11 12 13 14 15 16 17 18 19 20 21 22 23 24 25 26 27 28 29 30 31 32 33 34 35 36 37 38 39 40 41 42 43 44 45 46 47 48 49 50

000
ASUS43 KFGF 020510
RWRFGF
PRAIRIE TO PINES  WEATHER ROUNDUP
NATIONAL WEATHER SERVICE EASTERN NORTH DAKOTA/GRAND FORKS ND
1200 AM CDT SUN AUG 02 2015

 **SATELLITE DATA USED TO AUGMENT SKY COVER AT AUTOMATED STATIONS**
 *****  WEATHER ACROSS EASTERN NORTH DAKOTA  *****

CITY           SKY/WX    TMP DP  RH WIND       PRES   REMARKS
GRAND FORKS    PTCLDY    69  61  75 S6        29.63F
GRAND FRKS AFB PTCLDY    67  63  86 SW7       29.65F
DEVILS LAKE    PTCLDY    68  61  77 S3        29.68F
FARGO          CLEAR     73  66  78 SE7       29.65F
WAHPETON ARPT  CLEAR     70  64  83 E3        29.69F
$$

 ***** WEATHER ACROSS CENTRAL AND WESTERN NORTH DAKOTA  *****

CITY           SKY/WX    TMP DP  RH WIND       PRES   REMARKS
BISMARCK       CLEAR     72  60  66 W6        29.75R
MINOT          CLEAR     68  54  60 NW20      29.74R
JAMESTOWN      PTCLDY    71  66  84 S6        29.69S
MINOT AFB      CLEAR     70  57  63 N15G23    29.74R
GARRISON         N/A     70  53  54 W14       29.72R
WILLISTON      CLEAR     71  54  54 N15       29.85R
DICKINSON      CLEAR     65  42  43 W6        29.83R
HETTINGER      CLEAR     64  42  44 NW3       29.86S
$$

 *****  OTHER AIRPORT OBSERVATIONS IN OUR AREA  *****

CITY           SKY/WX    TMP DP  RH WIND       PRES   REMARKS
WALHALLA       LGT RAIN  64  64 100 MISG      29.72R
GRAFTON AIRPOR FAIR      73  64  73 W7        29.68R
VALLEY CITY AR FAIR      70  70 100 S8        29.68F
CANDO          NOT AVBL
CAVALIER APRT  LGT RAIN  66  61  82 N8        29.70F
GWINNER          N/A     73  72  94 S7        29.70F
SHEYENNE NWR     N/A     69  68  98 CALM      29.95S
ROLLA          MOCLDY    59  57  94 N7        29.78S
 ***** THE ABOVE OBSERVATIONS ARE NON NWS ARE NOT QUALITY
       CONTROLLED AND MAY MIS-REPORT RAIN FOR SNOW...
$$

  *****  WEATHER ACROSS NORTHERN MINNESOTA  *****

CITY           SKY/WX    TMP DP  RH WIND       PRES   REMARKS
FLAG ISLAND    NOT AVBL
WARROAD        CLOUDY    66  63  88 N21G26    29.69R
ROSEAU         CLOUDY    63  57  82 N28G67    29.72R VSB 1/2
HALLOCK        MOCLDY    68  63  83 N22G35    29.69R
THF RVR FALLS  CLOUDY    68  63  83 S6        29.66F
BAUDETTE       MOCLDY    64  58  80 SW7       29.63F
WASKISH        MOCLDY    68  61  77 S3        29.66F
CROOKSTON      MOCLDY    66  63  88 S6        29.66F
STEPHEN NDAWN    N/A     70  64  83 N12         N/A
GREENBUSH NDAW   N/A     70  63  78 N13         N/A
$$
  *****  WEATHER ACROSS CENTRAL AND WEST MINNESOTA  *****

CITY           SKY/WX    TMP DP  RH WIND       PRES   REMARKS
FOSSTON        PTCLDY    61  59  94 S6        29.69F
BEMIDJI        PTCLDY    62  58  86 SW5       29.69F
PARK RAPIDS    CLEAR     65  59  81 S3        29.71F
ELBOW LAKE     FAIR      70  67  90 S5        29.72F
WADENA         CLEAR     66  63  88 CALM      29.73F
DETROIT LAKES  CLEAR     68  64  88 S3        29.72F
MOORHEAD       CLEAR     70  64  83 SE7       29.67F
FERGUS FALLS   CLEAR     72  68  88 E3        29.70F
MORRIS MN      CLEAR     68  64  88 S5        29.72F
STAPLES        CLEAR     66  63  88 CALM      29.73F
$$
  *****  WEATHER ELSEWHERE ACROSS MINNESOTA  *****

CITY           SKY/WX    TMP DP  RH WIND       PRES   REMARKS
DULUTH         CLEAR     65  57  75 W7        29.73F
INTRNTL FALLS  MOCLDY    58  54  86 CALM      29.64F
ELY            PTCLDY    63  54  72 SW3       29.70F
CLOQUET        CLEAR     68  57  68 SW7       29.73F
WHEATON        CLEAR     68  63  83 S6        29.73S
BRAINERD       CLEAR     68  63  84 CALM      29.73F
HIBBING        MOCLDY    62  56  80 S5        29.71F
ALEXANDRIA     CLEAR     72  66  81 SW8       29.75F
SAINT CLOUD    CLEAR     73  67  81 SW9       29.74F
MINNEAPOLIS    PTCLDY    78  66  66 SW12      29.77S
$$

  *****  WEATHER ACROSS SOUTH DAKOTA  *****

CITY           SKY/WX    TMP DP  RH WIND       PRES   REMARKS
SIOUX FALLS    CLEAR     75  64  68 SW8       29.83F
BROOKINGS      CLEAR     70  61  73 S8        29.82S
WATERTOWN      CLEAR     72  64  76 SW10      29.78S
HURON          CLEAR     74  62  66 SW8       29.77F
SISSETON         N/A     69  66  90 W5        29.71F
ABERDEEN       CLEAR     63  59  87 SE6       29.71F
MITCHELL       CLEAR     74  63  68 SW9       29.81F
PIERRE         CLEAR     76  62  62 SW12      29.80F
MOBRIDGE       CLEAR     70  62  76 SE6       29.74S
RAPID CITY     CLEAR     73  60  63 SW8       29.93S
$$

  *****  SOME WEATHER IN NEARBY STATES *****

CITY           SKY/WX    TMP DP  RH WIND       PRES   REMARKS
GLASGOW MT     CLEAR     70  54  56 NE15      29.89R
GREAT FALLS MT CLEAR     66  37  34 S7        29.92S
CHEYENNE WY    MOCLDY    67  53  61 SE10      30.17S
SCOTTSBLUFF NE CLEAR     67  57  70 E6        30.03F
OMAHA NE       PTCLDY    77  72  84 S8        29.91S
DES MOINES IA  PTCLDY    77  70  79 SW12      29.91S
DAVENPORT IA   CLEAR     72  68  87 SW7       29.92S
CHICAGO IL     CLEAR     75  65  70 W9        29.89S
EAU CLAIRE WI  PTCLDY    66  63  90 CALM      29.78F
LA CROSSE WI   PTCLDY    77  68  73 S13       29.81F
$$

  *****  SOME NATIONAL WEATHER *****

CITY           SKY/WX    TMP DP  RH WIND       PRES   REMARKS
LA GUARDIA NY  MOCLDY    78  59  51 NW6       29.85R
RALEIGH NC     PTCLDY    70  64  81 CALM      29.94R
ATLANTA GA     PTCLDY    82  59  45 N7        29.96S
NEW ORLEANS LA CLEAR     84  64  50 CALM      29.89S
OKLAHOMA CITY  PTCLDY    73  69  87 S5        30.00S
ALBUQUERQUE NM CLOUDY    69  61  75 N7        30.23R
SALT LAKE CITY MOCLDY    80  43  26 S7        30.00R
LOS ANGELES CA PTCLDY    70  65  84 SW5       29.92R
BOISE ID       CLEAR     82  35  18 S3        29.88R
SEATTLE WA     PTCLDY    78  48  34 NE12      29.93R
$$

*** WEATHER ACROSS MANITOBA...SASKATCHEWAN AND ONTARIO ***
                ***ONTARIO***

CITY           SKY/WX    TMP DP  RH WIND       PRES   REMARKS
GERALDTON      MOCLDY    55  55 100 W6        29.61F
THUNDER BAY    CLOUDY    61  57  88 N5        29.65S
SIOUX LOOKOUT  MOCLDY    61  59  94 NW5       29.64S
TORONTO        PTCLDY    64  55  72 W8        29.85R
BIG TROUT LK   LGT RAIN  52  50  93 NW14G20   29.46F
PICKLE LAKE    NOT AVBL
DRYDEN         CLOUDY    61  59  94 SW9       29.66S
KENORA         MOCLDY    61  61 100 N5        29.66F
$$
                *** MANITOBA***

CITY           SKY/WX    TMP DP  RH WIND       PRES   REMARKS
BRANDON        PTCLDY    59  59 100 NW8       29.76F
DAUPHIN        CLOUDY    61  59  94 W5        29.76R
ISLAND LAKE    CLOUDY    57  52  82 NW15G25   29.61S
PILOT MOUND      N/A     63  59  88 NW6         N/A
THE PAS        MOCLDY    57  48  72 W5        29.75S
THOMPSON       LGT RAIN  52  48  87 NW8       29.67S
WINNIPEG       PTCLDY    63  61  94 W5        29.70R
LYNN LAKE      CLOUDY    55  46  71 N15G25    29.77R
CHURCHILL      LGT RAIN  46  45  93 N18G26    29.53S FOG
GILLAM         CLOUDY    52  48  87 NW15G21   29.54F
$$
                ***SASKATCHEWAN***

CITY           SKY/WX    TMP DP  RH WIND       PRES   REMARKS
ESTEVAN        CLEAR     61  55  82 NW10      29.86R
KINDERSLEY     MOCLDY    59  50  72 N9        29.98R
LLOYDMINSTER   CLEAR     59  50  72 NW3       29.99R
PRINCE ALBERT  PTCLDY    54  52  94 NW7       29.89R
REGINA         CLEAR     59  55  88 NW12      29.89R
YORKTON        PTCLDY    59  55  88 W8        29.82F
N. BATTLEFORD  CLEAR     55  50  82 N6        29.97R
LA RONGE       CLEAR     55  41  58 W6        29.87R
SASKATOON      PTCLDY    55  54  94 NW7       29.94R
SWIFT CURRENT  CLEAR     63  52  67 NE5       29.98R
$$
NOTE: THESE ARE AUTOMATED STATIONS WITH LIMITED QUALITY CONTROL
      "FAIR" INDICATES FEW OR NO CLOUDS BELOW 12,000 FEET WITH NO
      SIGNIFICANT WEATHER AND/OR OBSTRUCTIONS TO VISIBILITY.
      SKY/WX - SKY CONDITION AND SIGNIFICANT WEATHER.
      TMP - AIR TEMPERATURE.    DP   - DEWPOINT TEMPERATURE.
      RH  - RELATIVE HUMIDITY.  PRES - PRESSURE.
      HX  - HEAT INDEX.         WCI  - WIND CHILL INDEX.
$



USA.gov is the U.S. government's official web portal to all federal, state and local government web resources and services.